Regional Weather Roundup
Issued by NWS

Home | Current Version | Previous Version | Graphics & Text | Print | Product List | Glossary On
Versions: 1 2 3 4 5 6 7 8 9 10 11 12 13 14 15 16 17 18 19 20 21 22 23 24 25 26 27 28 29 30 31 32 33 34 35 36 37 38 39 40 41 42 43 44 45 46 47 48 49 50
000
ASUS43 KIND 031909
RWRIN

WEATHER ROUNDUP FOR INDIANA
NATIONAL WEATHER SERVICE INDIANAPOLIS IN
300 PM EDT SUN MAY 03 2015

NOTE: "FAIR" INDICATES FEW OR NO CLOUDS BELOW 12,000 FEET WITH NO
SIGNIFICANT WEATHER AND/OR OBSTRUCTIONS TO VISIBILITY.

* - STATION DOES NOT REPORT WEATHER SUCH AS PRECIPITATION OR FOG.

+ - STATION NOT QUALITY CONTROLLED BY THE NATIONAL WEATHER SERVICE.
    USE DATA WITH CAUTION...ESPECIALLY DEWPOINT AND RELATIVE
    HUMIDITY OBSERVATIONS.

INZ001>003-010>013-019-020-032000-
NORTHWEST INDIANA

CITY           SKY/WX    TMP DP  RH WIND       PRES   REMARKS
GARY /AIRPORT/ PTSUNNY   82 N/A N/A S20       29.96S
KNOX *+        CLOUDY    79  -4   4 SW17G24   29.99S
LA PORTE +     PTSUNNY   80  44  27 SW12G23   29.99F
MICHIGAN CITY+ CLOUDY    79  34  19 SW17G24   29.98F
MONTICELLO +   MOSUNNY   77  50  38 S13G18    30.01F
VALPARAISO     PTSUNNY   80  42  25 SW17      29.98F

$$

LMZ046-743>745-032000-
SOUTHERN LAKE MICHIGAN

STATION/POSITION TIME  TEMP    WIND        PRES    WAVE
                       AIR SEA DIR/SP/G            HT
                 (UTC) (F)     (DEG/KT/KT) (MB)    (FT)
BURNS HARBOR     1900   76     220/ 17/ 23 1014.9F
MICHIGAN CITY    1900   74     200/ 13/ 19   N/A
5NW MICH CITY    1900   65 51  220/  8/ 10   N/A     1

$$

INZ004-005-014>016-021>024-032000-
NORTH CENTRAL INDIANA

CITY           SKY/WX    TMP DP  RH WIND       PRES   REMARKS
ELKHART        PTSUNNY   77  37  24 S10G21    30.00F
GOSHEN         MOSUNNY   78  46  32 S14       30.01F
LOGANSPORT +   MOSUNNY   77  36  22 S10G20    30.03F
PERU/GRISSOM   MOSUNNY   77  49  37 SW15G28   30.02F
ROCHESTER +    MOSUNNY   79  43  27 SW14G21   30.02F
SOUTH BEND     CLOUDY    78  40  25 SW17G24   29.99F
WARSAW +       SUNNY     77  46  33 SW13      30.03S

$$

INZ006>009-017-018-025>027-032000-
NORTHEAST INDIANA

CITY           SKY/WX    TMP DP  RH WIND       PRES   REMARKS
ANGOLA *+      SUNNY     79  70  73 SW14      30.03S
AUBURN +       SUNNY     77  41  27 SW9G18    30.05S
FORT WAYNE     MOSUNNY   76  47  35 SW16      30.06S
HUNTINGTON +   SUNNY     75  45  34 S13G18    30.05S

$$

INZ028-029-035-036-043>045-051>053-032000-
WEST CENTRAL INDIANA

CITY           SKY/WX    TMP DP  RH WIND       PRES   REMARKS
CRAWFORDSVL +  MOSUNNY   76  36  22 S10G18    30.04F
GREENCASTLE +  SUNNY     75  41  29 SW8       30.06F
LAFAYETTE      MOSUNNY   77  45  32 SW13G22   30.01F
TERRE HAUTE    SUNNY     78  46  32 S16       30.04F

$$

INZ030>032-037>040-046>048-054>057-064-065-032000-
CENTRAL INDIANA

CITY           SKY/WX    TMP DP  RH WIND       PRES   REMARKS
CP ATTERBURY + MOSUNNY   75  45  33 S12G21    30.07F
COLUMBUS       SUNNY     75  41  29 S17       30.07F
FRANKFORT +    PTSUNNY   77  47  35 S14G21    30.06S
GREENWOOD *+   MOSUNNY   77  43  29 S15       30.08S
INDIANAPOLIS   PTSUNNY   77  47  34 SW9G20    30.04F
-EAGLE CREEK   MOSUNNY   76  46  34 S9G18     30.05F
MARION +       SUNNY     76  41  28 SW13G18   30.06F
MT COMFORT *+  SUNNY     77  23  13 SW15G21   30.07F
SHELBYVILLE    SUNNY     78  49  35 S14       30.06F
ZIONSVILLE +   MOSUNNY   77  42  28 SW13G24   30.06F

$$

INZ033-034-041-042-049-050-058-059-032000-
EAST CENTRAL INDIANA

CITY           SKY/WX    TMP DP  RH WIND       PRES   REMARKS
MUNCIE         SUNNY     76  45  33 SW14      30.06F

$$

INZ060-061-067>069-081>083-085>088-032000-
SOUTHWEST INDIANA

CITY           SKY/WX    TMP DP  RH WIND       PRES   REMARKS
EVANSVILLE     SUNNY     78  47  33 SW12G22   30.07F
HUNTINGBURG *+ SUNNY     77  50  38 S13G25    30.09S
WASHINGTON +   SUNNY     77  38  25 S16       30.05F

$$

INZ062-063-066-070>080-084-089>092-032000-
SOUTH CENTRAL AND SOUTHEAST INDIANA

CITY           SKY/WX    TMP DP  RH WIND       PRES   REMARKS
BLOOMINGTON    MOSUNNY   79  43  27 SW15      30.06F
MADISON *+     SUNNY     77  41  27 SW7       30.11F
NORTH VERNON + MOSUNNY   77  48  36 SW9       30.09F
SEYMOUR +      SUNNY     79  52  38 SW15      30.08F

$$




USA.gov is the U.S. government's official web portal to all federal, state and local government web resources and services.